DO7GH Weather Reports


Display with metric or nautical units.
time (UTC)temp
F
wind
direction
speed
MPH
gust
MPH
rain 1hr
in
rain 24hr
in
rain mn
in
humidity
%
barometer
mb
20260506112506 66 80 1.0 5.0 0.00 0.03 0.00 58 1005.4
20260506112007 64 332 1.0 5.0 0.00 0.03 0.00 60 1005.4
20260506111524 63 9 1.0 6.0 0.00 0.03 0.00 60 1005.5
20260506111006 63 109 1.0 6.0 0.00 0.03 0.00 60 1005.6
20260506110507 63 59 1.0 7.0 0.00 0.03 0.00 60 1005.5
20260506110020 63 91 2.0 8.0 0.00 0.03 0.00 61 1005.6
20260506105506 63 42 0.0 9.0 0.00 0.03 0.00 62 1005.6
20260506105007 63 55 2.0 9.0 0.00 0.03 0.00 60 1005.7
20260506104531 63 55 2.0 7.0 0.00 0.03 0.00 60 1005.7
20260506104011 62 22 2.0 6.0 0.00 0.03 0.00 59 1006.0
20260506103508 62 36 0.0 4.0 0.00 0.03 0.00 59 1006.2
20260506103036 62 24 1.0 4.0 0.00 0.03 0.00 59 1006.4
20260506102511 63 47 0.0 4.0 0.00 0.03 0.00 56 1006.5
20260506102008 63 76 0.0 3.0 0.00 0.03 0.00 58 1006.6
20260506101525 64 37 0.0 4.0 0.00 0.03 0.00 56 1006.6
20260506101004 63 97 1.0 4.0 0.00 0.03 0.00 56 1006.6
20260506100506 64 42 1.0 4.0 0.00 0.03 0.00 57 1006.6
20260506100011 64 327 1.0 4.0 0.00 0.03 0.00 59 1006.5
20260506095502 63 57 0.0 4.0 0.00 0.03 0.00 58 1006.5
20260506095004 64 163 1.0 4.0 0.00 0.03 0.00 58 1006.5
20260506094510 65 122 0.0 3.0 0.00 0.03 0.00 58 1006.4
20260506094003 64 352 0.0 6.0 0.00 0.03 0.00 58 1006.4
20260506093502 64 42 1.0 5.0 0.00 0.03 0.00 57 1006.4
20260506093018 64 336 0.0 6.0 0.00 0.03 0.00 57 1006.5
20260506092503 64 85 1.0 7.0 0.00 0.03 0.00 58 1006.5
20260506092003 64 60 1.0 7.0 0.00 0.03 0.00 56 1006.6
20260506091504 65 71 1.0 3.0 0.00 0.03 0.00 56 1006.5
20260506091003 64 114 1.0 4.0 0.00 0.03 0.00 57 1006.5
20260506090502 64 74 2.0 5.0 0.00 0.03 0.00 55 1006.5
20260506090007 64 352 1.0 5.0 0.00 0.03 0.00 57 1006.4
20260506085503 64 67 0.0 6.0 0.00 0.03 0.00 55 1006.5
20260506085003 64 132 1.0 6.0 0.00 0.03 0.00 56 1006.5
20260506084509 63 28 0.0 5.0 0.00 0.03 0.00 59 1006.5
20260506084002 62 44 0.0 5.0 0.00 0.03 0.00 60 1006.6
20260506083503 61 180 0.0 8.0 0.00 0.03 0.00 60 1006.7
20260506083017 62 45 2.0 8.0 0.00 0.03 0.00 62 1006.7
20260506082506 63 53 1.0 4.0 0.00 0.03 0.00 58 1006.8
20260506082006 62 336 1.0 4.0 0.00 0.03 0.00 62 1006.7
20260506081503 62 132 1.0 5.0 0.00 0.03 0.00 60 1006.8
20260506081008 62 12 1.0 5.0 0.00 0.03 0.00 59 1006.9
20260506080504 62 25 1.0 4.0 0.00 0.03 0.00 60 1007.0
20260506073504 60 122 0.0 3.0 0.00 0.03 0.00 65 1007.0
20260506073016 60 61 0.0 3.0 0.00 0.03 0.00 67 1007.1
20260506072505 60 49 2.0 4.0 0.00 0.03 0.00 66 1007.2
20260506072010 59 165 0.0 4.0 0.00 0.03 0.00 68 1007.3
20260506071521 59 150 0.0 2.0 0.00 0.03 0.00 68 1007.4
20260506070503 58 53 0.0 2.0 0.00 0.03 0.00 68 1007.4
20260506062507 55 66 0.0 0.0 0.00 0.03 0.00 81 1007.7
20260506062007 54 66 0.0 0.0 0.00 0.03 0.00 83 1007.7
20260506061520 54 66 0.0 0.0 0.00 0.03 0.00 82 1007.7
20260506061009 54 66 0.0 0.0 0.00 0.03 0.00 83 1007.7
20260506060510 54 66 0.0 2.0 0.00 0.03 0.00 82 1007.7
20260506051010 51 352 0.0 0.0 0.00 0.03 0.00 85 1008.1
20260506050504 50 349 0.0 0.0 0.00 0.03 0.00 88 1008.1
20260506045005 49 349 0.0 0.0 0.00 0.03 0.00 89 1008.0
20260506044519 49 348 0.0 0.0 0.00 0.03 0.00 89 1007.9
20260506044006 49 348 0.0 0.0 0.00 0.03 0.00 89 1007.8
20260506043505 49 328 0.0 0.0 0.00 0.03 0.00 89 1007.8
20260506043012 49 328 0.0 0.0 0.00 0.03 0.00 89 1007.9
20260506042505 50 328 0.0 0.0 0.00 0.03 0.00 89 1008.0
20260506042006 49 328 0.0 0.0 0.00 0.03 0.00 89 1008.0
20260506041519 49 328 0.0 0.0 0.00 0.03 0.00 89 1008.1
20260506041006 49 328 0.0 0.0 0.00 0.03 0.00 89 1008.1
20260506040505 49 333 0.0 1.0 0.00 0.03 0.00 89 1008.1
20260506040010 49 336 0.0 2.0 0.00 0.03 0.00 88 1008.1
20260506035506 49 336 0.0 2.0 0.00 0.03 0.00 88 1008.1
20260506035006 49 9 0.0 0.0 0.00 0.03 0.00 88 1008.2
20260506034520 50 30 0.0 0.0 0.00 0.03 0.00 88 1008.1
20260506034007 50 30 0.0 2.0 0.00 0.03 0.00 88 1008.1
20260506033507 50 42 0.0 2.0 0.00 0.03 0.00 88 1008.2
20260506033008 50 72 0.0 2.0 0.00 0.03 0.00 86 1008.3
20260506032505 51 248 0.0 0.0 0.00 0.03 0.00 84 1008.4
20260506032006 51 248 0.0 0.0 0.00 0.03 0.00 85 1008.5
20260506031513 51 248 0.0 0.0 0.00 0.03 0.00 86 1008.5
20260506031003 50 248 0.0 0.0 0.00 0.03 0.00 86 1008.6
20260506030504 50 248 0.0 0.0 0.00 0.03 0.00 87 1008.7
20260506030014 50 248 0.0 0.0 0.00 0.03 0.00 87 1008.7
20260506025503 50 248 0.0 0.0 0.00 0.03 0.00 87 1008.7
20260506025008 50 247 0.0 0.0 0.00 0.03 0.00 88 1008.8
20260506024520 50 246 0.0 0.0 0.00 0.03 0.00 89 1008.8
20260506024008 50 239 0.0 1.0 0.00 0.03 0.00 88 1008.8
20260506023508 50 239 0.0 1.0 0.00 0.03 0.00 87 1009.0
20260506023043 50 215 0.0 1.0 0.00 0.03 0.00 87 1009.0
20260506022509 51 225 0.0 0.0 0.00 0.03 0.00 87 1008.9
20260506022013 51 225 0.0 0.0 0.00 0.03 0.00 87 1008.7
20260506021512 51 225 0.0 0.0 0.00 0.03 0.00 87 1008.8
20260506021009 51 225 0.0 0.0 0.00 0.03 0.00 87 1008.6
20260506020504 51 225 0.0 0.0 0.00 0.03 0.00 88 1008.7
20260506020016 50 225 0.0 0.0 0.00 0.03 0.00 89 1008.7
20260506015504 50 207 0.0 1.0 0.00 0.03 0.00 89 1008.8
20260506015008 50 206 0.0 1.0 0.00 0.03 0.00 89 1008.8
20260506014522 50 199 0.0 0.0 0.00 0.03 0.00 90 1008.8
20260506014008 50 217 0.0 0.0 0.00 0.03 0.00 90 1008.9
20260506013508 50 217 0.0 0.0 0.00 0.03 0.00 90 1008.9
20260506013003 50 217 0.0 0.0 0.00 0.03 0.00 90 1009.0
20260506012504 50 217 0.0 0.0 0.00 0.03 0.00 90 1009.1
20260506012004 50 217 0.0 0.0 0.00 0.03 0.00 90 1009.1
20260506011511 50 217 0.0 0.0 0.00 0.03 0.00 90 1009.1
20260506011004 50 217 0.0 0.0 0.00 0.03 0.00 89 1009.1
20260506010507 50 217 0.0 0.0 0.00 0.03 0.00 89 1008.9
20260506010017 50 213 0.0 0.0 0.00 0.03 0.00 88 1008.9
20260506005504 51 213 0.0 0.0 0.00 0.03 0.00 88 1009.0
20260506005009 51 213 0.0 0.0 0.00 0.03 0.00 88 1008.9
20260506004525 51 213 0.0 0.0 0.00 0.03 0.00 87 1009.0
20260506004011 51 213 0.0 0.0 0.00 0.03 0.00 87 1009.0
20260506003515 51 213 0.0 0.0 0.00 0.03 0.00 87 1009.1
20260506003007 51 177 0.0 0.0 0.00 0.03 0.00 87 1009.1
20260506002504 51 150 0.0 0.0 0.00 0.03 0.00 89 1009.1
20260506002004 51 150 0.0 0.0 0.00 0.03 0.00 89 1009.2
20260506001506 51 150 0.0 0.0 0.00 0.03 0.00 89 1009.2
20260506001004 51 136 0.0 0.0 0.00 0.03 0.00 88 1009.3
20260506000504 52 170 0.0 0.0 0.00 0.03 0.00 88 1009.4
20260506000014 52 190 0.0 0.0 0.00 0.03 0.00 88 1009.3
20260505235505 52 190 0.0 0.0 0.00 0.03 0.00 87 1009.4
20260505235006 52 180 0.0 1.0 0.00 0.03 0.00 88 1009.4
20260505234519 52 184 0.0 1.0 0.00 0.03 0.00 88 1009.4
20260505234007 52 218 0.0 2.0 0.00 0.03 0.00 87 1009.4
20260505233510 52 165 0.0 2.0 0.00 0.03 0.00 86 1009.5
20260505233008 52 209 0.0 2.0 0.00 0.03 0.00 86 1009.6
20260505232504 52 202 0.0 3.0 0.00 0.03 0.00 87 1009.6
20260505232006 52 291 0.0 3.0 0.00 0.03 0.00 88 1009.7
20260505231532 52 285 0.0 3.0 0.00 0.03 0.00 88 1009.8
20260505231011 52 253 0.0 3.0 0.00 0.03 0.00 88 1009.8
20260505230502 52 234 1.0 2.0 0.00 0.03 0.00 88 1009.7
20260505230020 52 209 0.0 4.0 0.00 0.03 0.00 88 1009.6
20260505225504 52 219 0.0 4.0 0.00 0.03 0.00 88 1009.6
20260505225004 52 299 0.0 3.0 0.00 0.03 0.00 88 1009.5
20260505224515 53 237 0.0 4.0 0.00 0.03 0.00 88 1009.5
20260505224004 53 178 1.0 4.0 0.02 0.03 0.00 88 1009.6
20260505223505 53 263 0.0 5.0 0.03 0.03 0.00 88 1009.6
20260505223011 53 258 1.0 5.0 0.03 0.03 0.00 88 1009.7
20260505222503 53 241 0.0 6.0 0.03 0.03 0.00 88 1009.8
20260505222004 53 301 1.0 9.0 0.03 0.03 0.00 88 1009.9
20260505221516 53 200 0.0 9.0 0.02 0.03 0.00 88 1010.0
20260505221006 53 298 2.0 5.0 0.02 0.03 0.00 88 1010.2
20260505220505 53 271 1.0 8.0 0.02 0.03 0.00 88 1010.2
20260505220024 53 271 2.0 8.0 0.03 0.03 0.00 88 1010.1
20260505215508 53 246 0.0 6.0 0.03 0.03 0.03 88 1010.2
20260505215003 53 271 1.0 6.0 0.03 0.03 0.03 87 1010.1
20260505214512 54 280 2.0 9.0 0.03 0.03 0.03 86 1010.1
20260505214004 54 256 2.0 9.0 0.01 0.01 0.01 85 1010.1
20260505213504 54 288 1.0 6.0 0.00 0.00 0.00 84 1010.1
20260505213016 54 266 2.0 6.0 0.00 0.00 0.00 84 1010.1
20260505212504 54 280 1.0 5.0 0.00 0.00 0.00 84 1010.0
20260505212004 54 281 1.0 3.0 0.00 0.00 0.00 84 1009.9
20260505211516 54 276 0.0 2.0 0.00 0.00 0.00 84 1009.9
20260505211007 55 303 0.0 4.0 0.00 0.00 0.00 83 1009.9
20260505210508 55 268 0.0 7.0 0.00 0.00 0.00 81 1009.8
20260505210026 56 268 2.0 5.0 0.00 0.00 0.00 77 1009.8
20260505205511 57 333 1.0 7.0 0.00 0.00 0.00 75 1009.8
20260505205011 57 243 1.0 7.0 0.00 0.00 0.00 74 1009.5
20260505204527 57 319 1.0 6.0 0.00 0.00 0.00 73 1009.5
20260505204003 58 256 2.0 8.0 0.00 0.00 0.00 72 1009.3
20260505203503 58 232 2.0 8.0 0.00 0.00 0.00 71 1009.2
20260505203019 58 285 1.0 5.0 0.00 0.00 0.00 72 1009.1
20260505202504 57 317 1.0 7.0 0.00 0.00 0.00 73 1009.0
20260505202009 57 274 1.0 7.0 0.00 0.00 0.00 74 1009.0
20260505201531 57 235 0.0 2.0 0.00 0.00 0.00 74 1008.9
20260505201009 57 252 0.0 1.0 0.00 0.00 0.00 75 1008.6
20260505200505 57 242 0.0 2.0 0.00 0.00 0.00 74 1008.4
20260505200025 57 250 0.0 2.0 0.00 0.00 0.00 74 1008.3
20260505195506 57 257 0.0 2.0 0.00 0.00 0.00 74 1008.2
20260505195010 57 275 0.0 2.0 0.00 0.00 0.00 73 1008.0
20260505194528 58 256 0.0 2.0 0.00 0.00 0.00 73 1007.9
20260505194010 58 262 0.0 2.0 0.00 0.00 0.00 73 1007.8
20260505193506 58 269 0.0 2.0 0.00 0.00 0.00 73 1007.7
20260505193015 58 274 0.0 2.0 0.00 0.00 0.00 73 1007.7
20260505192504 58 252 0.0 2.0 0.00 0.00 0.00 73 1007.6
20260505192007 58 284 0.0 2.0 0.00 0.00 0.00 73 1007.5
20260505191520 59 321 0.0 2.0 0.00 0.00 0.00 73 1007.3
20260505191007 59 15 0.0 5.0 0.00 0.00 0.00 72 1007.3
20260505190510 59 318 0.0 5.0 0.00 0.00 0.00 72 1007.4
20260505190025 59 330 0.0 3.0 0.00 0.00 0.00 73 1007.4
20260505185512 59 238 0.0 3.0 0.00 0.00 0.00 74 1007.5
20260505185010 59 269 0.0 3.0 0.00 0.00 0.00 76 1007.5
20260505184527 58 316 0.0 3.0 0.00 0.00 0.00 76 1007.5
20260505184011 59 269 0.0 3.0 0.00 0.00 0.00 76 1007.4
20260505183504 58 323 0.0 2.0 0.00 0.00 0.00 76 1007.3
20260505183023 58 328 0.0 2.0 0.00 0.00 0.00 76 1007.1
20260505182507 59 336 0.0 2.0 0.00 0.00 0.00 75 1007.0
20260505182007 59 336 0.0 1.0 0.00 0.00 0.00 75 1007.0
20260505181515 59 313 0.0 2.0 0.00 0.00 0.00 74 1006.9
20260505181004 59 352 0.0 1.0 0.00 0.00 0.00 74 1006.6
20260505180503 60 333 0.0 2.0 0.00 0.00 0.00 73 1006.6
20260505180022 60 336 0.0 3.0 0.00 0.00 0.00 72 1006.4
20260505175508 60 340 0.0 3.0 0.00 0.00 0.00 71 1006.4
20260505175008 60 329 0.0 2.0 0.00 0.00 0.00 71 1006.3
20260505174529 61 325 0.0 2.0 0.00 0.00 0.00 71 1006.3
20260505174010 61 330 0.0 7.0 0.00 0.00 0.00 71 1006.4
20260505173504 61 336 0.0 7.0 0.00 0.00 0.00 70 1006.3
20260505173019 61 339 0.0 4.0 0.00 0.00 0.00 70 1006.3
20260505172508 61 346 0.0 3.0 0.00 0.00 0.00 70 1006.2
20260505172012 60 315 1.0 3.0 0.00 0.00 0.00 70 1006.2
20260505171521 61 341 0.0 3.0 0.00 0.00 0.00 70 1006.2
20260505171008 61 323 0.0 2.0 0.00 0.00 0.00 70 1006.2
20260505170508 61 337 0.0 4.0 0.00 0.00 0.00 71 1006.2
20260505170021 61 38 0.0 4.0 0.00 0.00 0.00 71 1006.2
20260505165507 61 9 0.0 4.0 0.00 0.00 0.00 71 1006.3
20260505165008 61 14 0.0 4.0 0.00 0.00 0.00 70 1006.3
20260505164522 62 319 1.0 7.0 0.00 0.00 0.00 68 1006.3
20260505164005 62 337 0.0 7.0 0.00 0.00 0.00 68 1006.3
20260505163505 62 285 2.0 6.0 0.00 0.00 0.00 67 1006.1
20260505163023 63 308 0.0 4.0 0.00 0.00 0.00 68 1006.2
20260505162506 62 345 0.0 4.0 0.00 0.00 0.00 69 1006.2
20260505162002 61 298 0.0 5.0 0.00 0.00 0.00 70 1006.3
20260505161506 61 322 1.0 5.0 0.00 0.00 0.00 69 1006.4
20260505161008 61 333 1.0 6.0 0.00 0.00 0.00 68 1006.5
20260505160504 61 332 2.0 6.0 0.00 0.00 0.00 67 1006.3
20260505153003 61 324 1.0 4.0 0.00 0.00 0.00 69 1006.9
20260505152504 61 322 1.0 4.0 0.00 0.00 0.00 69 1006.9
20260505152005 61 343 0.0 2.0 0.00 0.00 0.00 68 1007.0
20260505151506 61 332 0.0 3.0 0.00 0.00 0.00 70 1007.1
20260505151004 61 284 0.0 3.0 0.00 0.00 0.00 70 1007.2
20260505150504 62 273 0.0 3.0 0.00 0.00 0.00 68 1007.1
20260505140505 66 352 6.0 14.0 0.00 0.00 0.00 50 1006.5
20260505125002 73 122 1.0 4.0 0.00 0.00 0.00 37 1006.3
20260505124513 74 352 0.0 3.0 0.00 0.00 0.00 34 1006.3
20260505124007 75 302 0.0 3.0 0.00 0.00 0.00 34 1006.2
20260505123507 73 272 0.0 4.0 0.00 0.00 0.00 34 1006.3
20260505123008 73 181 1.0 4.0 0.00 0.00 0.00 34 1006.3
20260505122503 74 244 2.0 5.0 0.00 0.00 0.00 33 1006.4
20260505122004 75 211 1.0 5.0 0.00 0.00 0.00 34 1006.4
20260505121515 74 101 2.0 6.0 0.00 0.00 0.00 34 1006.4
20260505121004 75 111 1.0 7.0 0.00 0.00 0.00 35 1006.5
20260505120508 74 157 2.0 7.0 0.00 0.00 0.00 34 1006.5
20260505120006 75 94 1.0 4.0 0.00 0.00 0.00 34 1006.5
20260505115504 75 26 2.0 5.0 0.00 0.00 0.00 35 1006.6
20260505115004 75 57 1.0 6.0 0.00 0.00 0.00 36 1006.6
20260505114509 74 120 2.0 6.0 0.00 0.00 0.00 39 1006.7
20260505114004 75 148 3.0 6.0 0.00 0.00 0.00 35 1006.7
20260505113505 76 98 0.0 3.0 0.00 0.00 0.00 37 1006.7
20260505113015 75 126 0.0 2.0 0.00 0.00 0.00 39 1006.7